Regional Weather Roundup
Issued by NWS

Home | Current Version | Previous Version | Graphics & Text | Print | Product List | Glossary On
Versions: 1 2 3 4 5 6 7 8 9 10 11 12 13 14 15 16 17 18 19 20 21 22 23 24 25 26 27 28 29 30 31 32 33 34 35 36 37 38 39 40 41 42 43 44 45 46 47 48 49 50
000
ASUS43 KMKX 281900
RWRWI

WISCONSIN REGIONAL WEATHER ROUNDUP
NATIONAL WEATHER SERVICE MILWAUKEE/SULLIVAN WI
200 PM CDT SAT MAY 28 2016

NOTE: "FAIR" INDICATES FEW OR NO CLOUDS BELOW 12,000 FEET WITH NO
SIGNIFICANT WEATHER AND/OR OBSTRUCTIONS TO VISIBILITY.

WIZ001-002-006>008-014>016-023>028-282000-
NORTHWEST WISCONSIN

CITY           SKY/WX    TMP DP  RH WIND       PRES   REMARKS
SUPERIOR ARPT  CLOUDY    49  48  94 N5        29.79S
ASHLAND        CLOUDY    61  56  83 NW3       29.76F
HAYWARD        PTSUNNY   71  62  73 SW6       29.75F
SIREN          CLOUDY    67  58  73 S5        29.78S
CUMBERLAND     CLOUDY    66  61  82 W5        29.78S
RICE LAKE      CLOUDY    68  61  80 W5        29.78S
CHETEK         CLOUDY    71  64  80 SW5       29.76S
LADYSMITH      CLOUDY    74  65  73 SW3       29.76F
EAU CLAIRE     LGT RAIN  68  66  93 SW12      29.77R FOG
MENOMONIE      DRIZZLE   70  69  98 S7        29.77S
NEW RICHMOND   LGT RAIN  67  63  89 NW8       29.77F
OSCEOLA        CLOUDY    65  65  99 W3        29.80S
$$

WIZ003>005-009-010-017-018-282000-
NORTH CENTRAL WISCONSIN

CITY           SKY/WX    TMP DP  RH WIND       PRES   REMARKS
MANITOWISH WTR NOT AVBL
ARBOR VITAE    RAIN      64  63  94 CALM      29.77S
WOODRUFF       RAIN      64  63  94 CALM      29.77S
RHINELANDER    LGT RAIN  69  66  90 S10       29.77F
EAGLE RIVER    RAIN      67  66  96 SE5       29.77F
LAND O LAKES   RAIN      67  65  92 SE8G17    29.79S
PHILLIPS       CLOUDY    71  66  84 NW5       29.74F
TOMAHAWK       CLOUDY    68  66  92 CALM      29.76F FOG
MEDFORD        HVY RAIN  68  68  99 S12       29.76R
MERRILL        CLOUDY    73  66  78 SW16G28   29.76F
$$

WIZ029-030-035-036-043>047-282000-
CENTRAL WISCONSIN

CITY           SKY/WX    TMP DP  RH WIND       PRES   REMARKS
WAUSAU         LGT RAIN  75  66  73 S13       29.76S
MOSINEE        CLOUDY    73  66  78 S20G26    29.79S
MARSHFIELD     CLOUDY    75  64  68 W16G23    29.78R
STEVENS POINT  PTSUNNY   75  63  65 S20G25    29.80S
WAUPACA        MOSUNNY   80  64  57 S16G23    29.82R HX  82
WAUTOMA        PTSUNNY   77  63  61 SW12G28   29.82S
WISC RAPIDS    SUNNY     79  61  53 SW20G30   29.80S HX  80
CAMP DOUGLAS   NOT AVBL
$$

WIZ011>013-019>022-031-037>040-048>050-282000-
NORTHEAST WISCONSIN

CITY           SKY/WX    TMP DP  RH WIND       PRES   REMARKS
ANTIGO         CLOUDY    71  67  87 S18G24    29.80S
SHAWANO        CLOUDY    76  64  66 SW12G17   29.82R
OCONTO         CLOUDY    76  70  80 S8G17     29.81R
STURGEON BAY   NOT AVBL
GREEN BAY      CLOUDY    77  67  71 S15G25    29.82R
MANITOWOC      NOT AVBL
APPLETON       PTSUNNY   75  63  64 SW16G22   29.82R
CLINTONVILLE   PTSUNNY   77  63  61 SW14G24   29.81S
OSHKOSH        PTSUNNY   78  65  63 S18G28    29.82F HX  80
$$

WIZ032>034-041-042-053>061-282000-
SOUTHWEST WISCONSIN

CITY           SKY/WX    TMP DP  RH WIND       PRES   REMARKS
LA CROSSE      PTSUNNY   78  64  61 S13       29.77F HX  80
SPARTA         MOSUNNY   76  63  65 S13       29.79F
VIROQUA        PTSUNNY   74  62  66 S8G21     29.81F
BOSCOBEL       PTSUNNY   81  62  52 S9G17     29.80F HX  82
PRAIRIE DU CHI MOSUNNY   78  60  54 S9        29.80S
PLATTEVILLE    PTSUNNY   78  65  63 S17       29.84S HX  80
$$

WIZ056-057-062-063-064-067-068-282000-
SOUTH CENTRAL WISCONSIN

CITY           SKY/WX    TMP DP  RH WIND       PRES   REMARKS
REEDSBURG      PTSUNNY   77  64  64 S17       29.82F
BARABOO/DELLS  PTSUNNY   77  61  57 S16       29.82S
LONE ROCK      NOT AVBL
MINERAL POINT  PTSUNNY   79  63  57 S14G20    29.84S HX  80
MADISON        PTSUNNY   80  62  54 S20G29    29.82F HX  81
MIDDLETON      PTSUNNY   80  64  59 S17G23    29.83F HX  81
WATERTOWN      MOSUNNY   79  66  64 S15G22    29.85F HX  81
MONROE         PTSUNNY   77  63  61 S20G28    29.86S
JANESVILLE     MOSUNNY   81  63  54 S20G26    29.86F HX  82
$$

WIZ051-052-058>065-066-070>072-282000-
SOUTHEAST WISCONSIN

CITY           SKY/WX    TMP DP  RH WIND       PRES   REMARKS
MILWAUKEE      CLOUDY    78  65  63 S18G26    29.89R HX  80
WAUKESHA       PTSUNNY   75  64  69 S16G24    29.89S
MILWAUKEE/TIMM PTSUNNY   77  63  61 S18G24    29.88S
RACINE         CLOUDY    79  63  57 SW18G25   29.91S HX  80
BURLINGTON     CLOUDY    77  64  64 S14G24    29.89S
KENOSHA        CLOUDY    79  64  60 SW17G25   29.90S HX  81
FOND DU LAC    CLOUDY    80  67  64 S20G26    29.83F HX  82
SHEBOYGAN      CLOUDY    73  65  75 S10       29.87R
WEST BEND      CLOUDY    77  63  61 S14G21    29.87S
JUNEAU         PTSUNNY   78  66  66 S20G28    29.86F HX  80
$$

LSZ147-162-282000-
LAKE SUPERIOR

STATION/POSITION TIME  TEMP    WIND        PRES    WAVE
                       AIR SEA DIR/SP/G            HT/PER
                 (UTC) (F)     (DEG/KT/KT) (MB)    (FT/S)
W MID LAKE BUOY  1750   42 38   40/ 10/ 12 1008.7F   1/ 4
DEVILS ISLAND    1800   45     280/  5/  8 1009.3F
SAXON HARBOR     1800   50      CALM  /  1 1008.5F
$$

LMZ867-665-643>646-282000-
LAKE MICHIGAN

STATION/POSITION TIME  TEMP    WIND        PRES    WAVE
                       AIR SEA DIR/SP/G            HT/PER
                 (UTC) (F)     (DEG/KT/KT) (MB)    (FT/S)
CHAMBERS ISLAND  1800   69     140/  9/ 15 1009.8F
N MID LAKE BUOY  1750   53 46  190/ 16/ 17 1011.1F   2/ 4
NORTHPORT PIER   1800   61     170/ 10/ 19 1010.8S
SISTER BAY       1820   68     180/ 24/ 29   N/A
ALGOMA LAKESHORE 1817          190/ 11/ 14   N/A
KEWAUNEE LAKESHO 1800   54     180/ 12/ 14 1010.5S
SHEBOYGAN LAKESH 1800   55     180/ 19/ 20 1011.8R
PORT WASHINGTON  1800   62     190/  7/ 11 1012.5S
S MID LAKE BUOY  1750   57 50  160/ 14/ 16 1013.1S   2/ 4
KENOSHA   LAKESH 1800   75     190/ 16/ 24 1012.5S
$$

TC  - TEMPERATURE IN CELSIUS
VSB - VISIBILITY IN STATUTE MILES
WCI - WIND CHILL INDEX
HX  - HEAT INDEX




USA.gov is the U.S. government's official web portal to all federal, state and local government web resources and services.